Starlink 2081

operational
NORAD ID: 47366 Int'l Des: 2021-005 Owner: SPXS Country: US Constellation: starlink
LEOCIRCULARSTARLINK_TYPE

About Starlink 2081

Description loading...

Live Position

Loading 3D Globe...

Upcoming Passes

Altitude History

Altitude vs Time

uPlot chart will show altitude changes over time

Two-Line Element Set

1 47366U 21005T 25351.52554453 .00001307 00000-0 10659-3 0 9998
2 47366 53.0557 70.4703 0001538 78.6698 281.4464 15.06407047270658
Epoch: Dec 17, 2025 • Age: 19 hours

Current Status

Altitude 559.6 km
Velocity 7.58 km/s
Sub-Earth Point -36.05°S, 85.84°E
Launch Date Jan 20, 2021
Age 4.9 years
Type internet

Technical Details

Classification Payload
Mass 260.00 kg
Dry Mass 248.00 kg
Total Mass 260.00 kg
Length 0.20 m
Diameter 2.80 m
Span 9.00 m
Shape Box + pan
Manufacturer SPXS
Bus Type Starlink
Phase Status In Orbit
Owner/State SPXS/US

Large Constellations

Loading constellations...